Weather History for KROC - January, 2014

Change the Weather History Date:

Wednesday, January 22, 2014

  Actual Average Record
Temperature  
Mean Temperature 2 °F 24 °F  
Max Temperature 9 °F 31 °F 68 °F (1906)
Min Temperature -5 °F 17 °F -9 °F (2005)
Degree Days  
Heating Degree Days 63 41  
Month to date heating degree days 921 885  
Since 1 July heating degree days 3418 3338  
Cooling Degree Days 0 0  
Month to date cooling degree days 0 0  
Year to date cooling degree days 0 0  
Moisture  
Dew Point -4 °F    
Average Humidity 75    
Maximum Humidity 86    
Minimum Humidity 63    
Precipitation  
Precipitation 0.01 in 0.08 in 0.92 in (1904)
Month to date precipitation 1.09 1.76  
Year to date precipitation 1.09 1.76  
Snow  
Snow 0.20 in 1.00 in 9.00 in (1881)
Month to date snowfall 16.7 20.2  
Since 1 July snowfall 52.7 49.4  
Snow Depth 3.00 in    
Sea Level Pressure  
Sea Level Pressure 30.10 in    
Wind  
Wind Speed 6 mph (NNW)    
Max Wind Speed 14 mph    
Max Gust Speed 15 mph    
Visibility 6 miles    
Events Snow    
T = Trace of Precipitation, MM = Missing Value Source: NWS Daily Summary

Daily Weather History Graph

Daily Weather History Graph

Search for Another Location

Airport or City:

Trip Planner

Search our weather history database for the weather conditions in past years. The results will help you decide how hot, cold, wet, or windy it might be!

Date:

Astronomy

Jan. 22, 2014 Rise Set
Actual Time 7:35 AM EST 5:09 PM EST
Civil Twilight 7:04 AM EST 5:40 PM EST
Nautical Twilight 6:29 AM EST 6:15 PM EST
Astronomical Twilight 5:55 AM EST 6:49 PM EST
Moon 11:52 PM EST (1/22) 10:24 AM EST (1/22)
Length of Visible Light 10h 36m
Length of Day
9h 34m
Waning Gibbous, 65% of the Moon is Illuminated
Jan 22
Waning Gibbous
Jan 24
Last Quarter
Jan 30
New
Feb 6
First Quarter
Feb 14
Full

Hourly Weather History & Observations

Time (EST) Temp. Windchill Dew Point Humidity Pressure Visibility Wind Dir Wind Speed Gust Speed Precip Events Conditions
12:31 AM 3.2 °F -7.8 °F -2.2 °F 78% 30.09 in 2.0 mi NNE 5.8 mph - 0.00 in Snow Light Snow
12:50 AM 3.2 °F -7.8 °F -0.4 °F 85% 30.09 in 2.0 mi NNW 5.8 mph - 0.00 in Snow Light Snow
12:54 AM 3.9 °F -8.2 °F -0.9 °F 80% 30.14 in 1.5 mi North 6.9 mph - 0.00 in Snow Light Snow
1:54 AM 3.9 °F -9.4 °F -2.0 °F 76% 30.12 in 1.2 mi North 8.1 mph - 0.00 in Snow Light Snow
2:01 AM 3.2 °F -13.9 °F -2.2 °F 78% 30.07 in 1.2 mi NNE 12.7 mph - 0.00 in Snow Light Snow
2:47 AM 1.4 °F -13.5 °F -4.0 °F 78% 30.08 in 4.0 mi NNE 9.2 mph - 0.00 in Snow Light Snow
2:54 AM 1.0 °F -14.0 °F -4.0 °F 79% 30.13 in 6.0 mi NNE 9.2 mph - 0.00 in Snow Light Snow
3:54 AM 1.0 °F -12.9 °F -4.0 °F 79% 30.12 in 1.5 mi NNE 8.1 mph - 0.00 in Snow Light Snow
4:54 AM -0.9 °F -11.0 °F -5.1 °F 83% 30.12 in 9.0 mi NNW 4.6 mph - 0.00 in Snow Light Snow
5:54 AM -2.0 °F -13.9 °F -6.0 °F 83% 30.12 in 7.0 mi NNW 5.8 mph - 0.00 in Snow Light Snow
6:54 AM -2.0 °F -10.1 °F -7.1 °F 79% 30.13 in 10.0 mi NW 3.5 mph - 0.00 in   Partly Cloudy
7:54 AM -4.0 °F -12.4 °F -8.0 °F 83% 30.13 in 4.0 mi NW 3.5 mph - 0.00 in Snow Light Snow
8:54 AM -0.9 °F -11.0 °F -5.1 °F 83% 30.13 in 3.0 mi NNW 4.6 mph - 0.00 in Snow Light Snow
9:54 AM 3.0 °F -8.0 °F -2.9 °F 76% 30.12 in 3.0 mi NNW 5.8 mph - 0.00 in Snow Light Snow
10:02 AM 1.4 °F -9.9 °F -4.0 °F 78% 30.07 in 2.0 mi NNW 5.8 mph - 0.00 in Snow Light Snow
10:54 AM 5.0 °F -5.6 °F -4.0 °F 66% 30.12 in 6.0 mi NNE 5.8 mph - 0.01 in Snow Light Snow
11:54 AM 6.1 °F -4.3 °F -2.9 °F 67% 30.09 in 4.0 mi North 5.8 mph - 0.00 in Snow Light Snow
12:54 PM 7.0 °F -5.7 °F -4.0 °F 61% 30.08 in 4.0 mi NW 8.1 mph - 0.00 in Snow Light Snow
1:54 PM 7.0 °F -4.5 °F -2.9 °F 64% 30.06 in 8.0 mi WNW 6.9 mph - 0.00 in Snow Light Snow
2:54 PM 7.0 °F -5.7 °F -2.9 °F 64% 30.06 in 9.0 mi North 8.1 mph - 0.00 in Snow Light Snow
3:37 PM 8.6 °F 0.1 °F -2.2 °F 62% 30.01 in 10.0 mi NNW 4.6 mph - 0.00 in   Mostly Cloudy
3:54 PM 8.1 °F -3.2 °F -2.0 °F 64% 30.06 in 10.0 mi North 6.9 mph - 0.00 in   Mostly Cloudy
4:54 PM 6.1 °F -0.9 °F -4.0 °F 63% 30.09 in 10.0 mi North 3.5 mph - N/A   Mostly Cloudy
5:54 PM 5.0 °F - -2.9 °F 70% 30.09 in 10.0 mi Calm Calm - N/A   Mostly Cloudy
6:54 PM 3.0 °F - -2.9 °F 76% 30.10 in 10.0 mi Calm Calm - N/A   Scattered Clouds
7:54 PM 1.9 °F -7.6 °F -4.0 °F 76% 30.09 in 10.0 mi SW 4.6 mph - N/A   Mostly Cloudy
8:54 PM 3.9 °F -6.9 °F -2.0 °F 76% 30.10 in 10.0 mi SW 5.8 mph - N/A   Overcast
9:54 PM 5.0 °F -8.1 °F -2.9 °F 70% 30.09 in 10.0 mi SW 8.1 mph - N/A   Overcast
10:54 PM 3.0 °F -8.0 °F -4.0 °F 73% 30.09 in 10.0 mi SW 5.8 mph - N/A   Overcast
11:54 PM 3.0 °F -9.3 °F -4.0 °F 73% 30.09 in 10.0 mi SW 6.9 mph - N/A   Mostly Cloudy